Location: Newark
(45.2500°N, 7.5833°E)
Time: 01:10:54
(UTC+00:00)

A-11 Canister half - Pass Details

Date: 26 January 2020
Orbit: 1524 x 1684 km, 47.3° (Epoch: 26 February)

Event Time Altitude Azimuth Distance (km) Brightness Sun altitude
Rises 00:32:36 0° 292° (WNW) 4,795 - -61.6°
Reaches altitude 10° 00:36:21 10° 280° (W) 3,832 - -61.3°
Maximum altitude 00:43:46 25° 230° (SW) 2,845 - -60.7°
Drops below altitude 10° 00:51:22 10° 180° (S) 3,908 - -60.0°
Sets 00:55:16 0° 168° (SSE) 4,908 - -59.6°
